TimeEST,TemperatureF,Dew PointF,Humidity,Sea Level PressureIn,VisibilityMPH,Wind Direction,Wind SpeedMPH,Gust SpeedMPH,PrecipitationIn,Events,Conditions,WindDirDegrees,DateUTC
12:53 AM,64.9,60.1,84,30.13,10.0,Calm,Calm,-,N/A,,Partly Cloudy,0,2013-01-14 05:53:00
1:53 AM,64.0,60.1,87,30.13,10.0,East,5.8,-,N/A,,Partly Cloudy,100,2013-01-14 06:53:00
2:53 AM,64.0,61.0,90,30.12,10.0,Calm,Calm,-,N/A,,Partly Cloudy,0,2013-01-14 07:53:00
3:53 AM,63.0,61.0,93,30.12,10.0,Calm,Calm,-,N/A,,Clear,0,2013-01-14 08:53:00
4:53 AM,63.0,62.1,97,30.12,9.0,NE,3.5,-,N/A,,Mostly Cloudy,50,2013-01-14 09:53:00
5:53 AM,64.0,62.1,93,30.12,9.0,East,6.9,-,N/A,,Scattered Clouds,80,2013-01-14 10:53:00
6:53 AM,64.0,62.1,93,30.13,10.0,East,5.8,-,N/A,,Clear,90,2013-01-14 11:53:00
7:53 AM,64.9,62.1,90,30.14,8.0,East,6.9,-,N/A,,Clear,100,2013-01-14 12:53:00
8:53 AM,71.1,63.0,75,30.15,10.0,ESE,5.8,-,N/A,,Clear,110,2013-01-14 13:53:00
9:53 AM,75.0,64.0,69,30.17,10.0,ESE,10.4,-,N/A,,Clear,120,2013-01-14 14:53:00
10:53 AM,79.0,63.0,58,30.16,10.0,ESE,9.2,-,N/A,,Partly Cloudy,120,2013-01-14 15:53:00
11:53 AM,79.0,61.0,54,30.14,10.0,SSE,9.2,-,N/A,,Scattered Clouds,150,2013-01-14 16:53:00
12:53 PM,81.0,62.1,52,30.12,10.0,SSE,13.8,18.4,N/A,,Mostly Cloudy,150,2013-01-14 17:53:00
1:53 PM,81.0,63.0,54,30.10,10.0,SE,6.9,-,N/A,,Mostly Cloudy,140,2013-01-14 18:53:00
2:53 PM,81.0,62.1,52,30.10,10.0,East,8.1,-,N/A,,Scattered Clouds,100,2013-01-14 19:53:00
3:53 PM,79.0,64.0,60,30.11,10.0,South,6.9,-,N/A,,Mostly Cloudy,190,2013-01-14 20:53:00
5:53 PM,75.0,64.0,69,30.14,10.0,South,4.6,-,N/A,,Clear,170,2013-01-14 22:53:00
6:53 PM,73.9,64.9,73,30.15,10.0,SSE,3.5,-,N/A,,Mostly Cloudy,150,2013-01-14 23:53:00
7:53 PM,73.0,64.9,76,30.16,10.0,Calm,Calm,-,N/A,,Overcast,0,2013-01-15 00:53:00
8:53 PM,70.0,61.0,73,30.15,10.0,ESE,4.6,-,N/A,,Clear,110,2013-01-15 01:53:00
9:53 PM,68.0,61.0,78,30.15,7.0,SE,4.6,-,N/A,,Clear,130,2013-01-15 02:53:00
10:53 PM,68.0,62.1,81,30.14,8.0,ESE,4.6,-,N/A,,Clear,120,2013-01-15 03:53:00
11:53 PM,66.9,62.1,84,30.14,5.0,ESE,4.6,-,N/A,,Haze,110,2013-01-15 04:53:00